Fort Lauderdale, FL

1:31 AM EST on December 12, 2019 (GMT -0500)
Fort Lauderdale Executive

Weather History for KFXE - October, 2019

Change the Weather History Date:

Sunday, October 27, 2019

  Actual Average Record
Temperature  
Mean Temperature 82 °F -  
Max Temperature 89 °F 85 °F 90 °F (1981)
Min Temperature 75 °F 67 °F 52 °F (1958)
Cooling Degree Days 16    
Growing Degree Days 32 (Base 50)    
Moisture  
Dew Point 75 °F    
Average Humidity 81    
Maximum Humidity 97    
Minimum Humidity 63    
Precipitation  
Precipitation 0.00 in - - ()
Sea Level Pressure  
Sea Level Pressure 29.99 in    
Wind  
Wind Speed 4 mph ()    
Max Wind Speed 13 mph    
Max Gust Speed -    
Visibility 10.0 miles    
Events      
Averages and records for this station are not official NWS values.
T = Trace of Precipitation, MM = Missing Value Source: Averaged Metar Reports

Daily Weather History Graph

Daily Weather History Graph

Search for Another Location

Airport or City:

Astronomy

Oct. 27, 2019 Rise Set
Actual Time 7:26 AM EDT 6:42 PM EDT
Civil Twilight 7:02 AM EDT 7:05 PM EDT
Nautical Twilight 6:35 AM EDT 7:33 PM EDT
Astronomical Twilight 6:08 AM EDT 8:00 PM EDT
Moon 6:43 AM EDT (10/27) 6:44 PM EDT (10/27)
Length of Visible Light 12h 03m
Length of Day
11h 16m
Waning Crescent, 0% of the Moon is Illuminated
Oct 27
Waning Crescent
Oct 27
New
Nov 4
First Quarter
Nov 12
Full
Nov 19
Last Quarter

Hourly Weather History & Observations

Time (EDT) Temp. Heat Index Dew Point Humidity Pressure Visibility Wind Dir Wind Speed Gust Speed Precip Events Conditions
12:53 AM 77.0 °F - 75.0 °F 94% 29.99 in 10.0 mi SE 3.5 mph - N/A   Partly Cloudy
1:53 AM 79.0 °F - 75.9 °F 90% 29.98 in 10.0 mi SE 5.8 mph - N/A   Clear
2:53 AM 79.0 °F - 75.9 °F 90% 29.96 in 10.0 mi SE 4.6 mph - N/A   Clear
3:53 AM 80.1 °F 85.4 °F 75.9 °F 87% 29.96 in 10.0 mi SE 5.8 mph - 0.00 in   Partly Cloudy
4:53 AM 79.0 °F - 75.9 °F 90% 29.95 in 10.0 mi Calm Calm - N/A   Clear
5:53 AM 77.0 °F - 75.0 °F 94% 29.96 in 10.0 mi Calm Calm - N/A   Clear
6:53 AM 77.0 °F - 75.0 °F 94% 29.97 in 10.0 mi SSW 3.5 mph - N/A   Partly Cloudy
7:53 AM 75.9 °F - 75.0 °F 97% 29.99 in 10.0 mi Calm Calm - N/A   Partly Cloudy
8:53 AM 78.1 °F - 75.9 °F 93% 30.01 in 10.0 mi Calm Calm - N/A   Scattered Clouds
9:53 AM 80.1 °F 85.4 °F 75.9 °F 87% 30.02 in 10.0 mi Calm Calm - N/A   Scattered Clouds
10:53 AM 84.0 °F 93.7 °F 77.0 °F 79% 30.02 in 10.0 mi SE 5.8 mph - 0.00 in   Scattered Clouds
11:53 AM 86.0 °F 95.1 °F 75.0 °F 70% 30.02 in 10.0 mi SE 12.7 mph - N/A   Partly Cloudy
12:53 PM 87.1 °F 96.3 °F 75.0 °F 67% 30.00 in 10.0 mi SSE 10.4 mph - N/A   Partly Cloudy
1:53 PM 87.1 °F 96.3 °F 75.0 °F 67% 29.98 in 10.0 mi SE 10.4 mph - N/A   Partly Cloudy
2:53 PM 88.0 °F 96.5 °F 73.9 °F 63% 29.98 in 10.0 mi South 9.2 mph - N/A   Scattered Clouds
3:53 PM 88.0 °F 96.5 °F 73.9 °F 63% 29.97 in 10.0 mi SSE 9.2 mph - N/A   Scattered Clouds
4:53 PM 86.0 °F 95.1 °F 75.0 °F 70% 29.96 in 10.0 mi ESE 10.4 mph - N/A   Scattered Clouds
5:53 PM 84.0 °F 91.9 °F 75.0 °F 74% 29.98 in 10.0 mi ESE 11.5 mph - N/A   Partly Cloudy
6:53 PM 82.9 °F 90.8 °F 75.9 °F 79% 29.99 in 10.0 mi SE 8.1 mph - N/A   Scattered Clouds
7:53 PM 82.0 °F 89.4 °F 75.9 °F 82% 29.99 in 10.0 mi ESE 6.9 mph - N/A   Partly Cloudy
8:53 PM 82.0 °F 89.4 °F 75.9 °F 82% 30.00 in 10.0 mi SE 5.8 mph - N/A   Partly Cloudy
9:53 PM 82.0 °F 89.4 °F 75.9 °F 82% 30.02 in 10.0 mi SE 4.6 mph - N/A   Clear
10:53 PM 81.0 °F 86.2 °F 73.9 °F 79% 30.03 in 10.0 mi Calm Calm - N/A   Clear
11:53 PM 80.1 °F 84.2 °F 73.0 °F 79% 30.02 in 10.0 mi SE 3.5 mph - N/A   Clear